TRPR59 YPKL-YPKL

Flight info

Callsign TRPR59
Flight time 3h 19m
Altitude 3500
Route VFR
Aircraft H60/L-G/1200

Departure

Time 2026-04-22 02:32
Airport Puckapunyal (Military) Airport (YPKL)

Arrival

Time 2026-04-22 05:51
Airport Puckapunyal (Military) Airport (YPKL)
Time Latitude Longitude Altitude Speed Heading
2026-04-22 02:31 -37.00313 145.04859 541 ft 1 kts
2026-04-22 02:31 -37.00312 145.04858 550 ft 0 kts 357°
2026-04-22 02:31 -37.00314 145.04857 750 ft 1 kts 356°
2026-04-22 02:32 -37.00320 145.04855 1153 ft 1 kts 355°
2026-04-22 02:32 -37.00327 145.04853 1545 ft 1 kts 355°
2026-04-22 02:32 -37.00237 145.04848 1362 ft 46 kts 355°
2026-04-22 02:32 -36.99708 145.05107 1386 ft 101 kts 34°
2026-04-22 02:33 -36.99318 145.05875 1302 ft 111 kts 72°
2026-04-22 02:33 -36.99334 145.06849 1277 ft 113 kts 101°
2026-04-22 02:33 -36.99505 145.07888 1449 ft 138 kts 102°
2026-04-22 02:33 -36.99740 145.09018 1507 ft 125 kts 105°
2026-04-22 02:34 -36.99957 145.10020 1511 ft 116 kts 104°
2026-04-22 02:34 -37.00184 145.10981 1397 ft 115 kts 108°
2026-04-22 02:34 -37.00767 145.11471 1316 ft 104 kts 185°
2026-04-22 02:34 -37.01402 145.11030 1303 ft 109 kts 219°
2026-04-22 02:35 -37.02083 145.10566 1219 ft 115 kts 207°
2026-04-22 02:35 -37.02851 145.10326 1202 ft 122 kts 195°
2026-04-22 02:35 -37.03777 145.10128 1198 ft 144 kts 192°
2026-04-22 02:35 -37.04792 145.10041 1163 ft 146 kts 182°
2026-04-22 02:36 -37.05795 145.10143 1225 ft 143 kts 177°
2026-04-22 02:36 -37.06771 145.10240 1242 ft 144 kts 177°
2026-04-22 02:36 -37.07757 145.10345 1248 ft 141 kts 176°
2026-04-22 02:36 -37.08760 145.10275 1248 ft 152 kts 197°
2026-04-22 02:37 -37.09703 145.09840 1247 ft 139 kts 203°
2026-04-22 02:37 -37.10632 145.09394 1248 ft 142 kts 203°
2026-04-22 02:37 -37.11530 145.09001 1243 ft 137 kts 199°
2026-04-22 02:37 -37.12485 145.08656 1235 ft 142 kts 199°
2026-04-22 02:38 -37.13449 145.08331 1362 ft 150 kts 199°
2026-04-22 02:38 -37.14425 145.08059 2091 ft 143 kts 195°
2026-04-22 02:38 -37.15404 145.07791 2166 ft 146 kts 195°
2026-04-22 02:38 -37.16386 145.07521 2149 ft 143 kts 195°
2026-04-22 02:39 -37.17354 145.07243 2139 ft 148 kts 197°
2026-04-22 02:39 -37.18329 145.06952 2134 ft 147 kts 198°
2026-04-22 02:39 -37.19333 145.06638 2141 ft 145 kts 198°
2026-04-22 02:39 -37.20316 145.06321 2148 ft 147 kts 199°
2026-04-22 02:40 -37.21287 145.06000 2149 ft 144 kts 199°
2026-04-22 02:40 -37.22245 145.05672 2149 ft 147 kts 199°
2026-04-22 02:40 -37.23214 145.05330 2148 ft 145 kts 199°
2026-04-22 02:40 -37.24188 145.04975 2143 ft 147 kts 200°
2026-04-22 02:41 -37.25148 145.04614 2142 ft 145 kts 200°
2026-04-22 02:41 -37.26102 145.04244 2132 ft 143 kts 202°
2026-04-22 02:41 -37.27052 145.03864 2132 ft 144 kts 202°
2026-04-22 02:41 -37.28027 145.03492 2125 ft 152 kts 196°
2026-04-22 02:42 -37.29090 145.03729 2101 ft 167 kts 153°
2026-04-22 02:42 -37.29791 145.04812 2109 ft 162 kts 109°
2026-04-22 02:42 -37.29778 145.06168 2128 ft 152 kts 70°
2026-04-22 02:42 -37.29108 145.07101 2135 ft 147 kts 22°
2026-04-22 02:43 -37.28142 145.06901 1982 ft 165 kts 335°
2026-04-22 02:43 -37.27830 145.05601 1819 ft 161 kts 259°
2026-04-22 02:43 -37.28607 145.04762 1799 ft 161 kts 192°
2026-04-22 02:43 -37.29657 145.04722 1821 ft 139 kts 182°
2026-04-22 02:44 -37.30639 145.04694 1810 ft 141 kts 182°
2026-04-22 02:44 -37.31649 145.04475 1743 ft 154 kts 208°
2026-04-22 02:44 -37.32304 145.03432 1792 ft 141 kts 234°
2026-04-22 02:44 -37.33127 145.02846 1776 ft 127 kts 206°
2026-04-22 02:45 -37.33950 145.02508 1767 ft 130 kts 195°
2026-04-22 02:45 -37.34988 145.02408 1771 ft 165 kts 181°
2026-04-22 02:45 -37.36093 145.02439 1795 ft 146 kts 179°
2026-04-22 02:45 -37.37098 145.02492 1790 ft 145 kts 176°
2026-04-22 02:46 -37.38112 145.02555 1789 ft 145 kts 176°
2026-04-22 02:46 -37.39106 145.02616 1778 ft 145 kts 176°
2026-04-22 02:46 -37.40131 145.02348 1768 ft 154 kts 206°
2026-04-22 02:46 -37.40991 145.01686 1703 ft 128 kts 228°
2026-04-22 02:47 -37.41113 145.00870 1573 ft 82 kts 299°
2026-04-22 02:47 -37.40859 145.00379 1457 ft 56 kts 286°
2026-04-22 02:47 -37.40881 145.00026 1349 ft 23 kts 244°
2026-04-22 02:47 -37.40898 144.99981 1253 ft 0 kts 239°
2026-04-22 02:48 -37.40899 144.99982 1207 ft 0 kts 238°
2026-04-22 02:48 -37.40898 144.99981 1189 ft 1 kts 238°
2026-04-22 02:48 -37.40899 144.99981 1190 ft 0 kts 237°
2026-04-22 02:49 -37.40898 144.99980 1190 ft 0 kts 237°
2026-04-22 02:49 -37.40898 144.99981 1193 ft 1 kts 238°
2026-04-22 02:49 -37.40899 144.99981 1191 ft 0 kts 238°
2026-04-22 02:49 -37.40898 144.99980 1190 ft 0 kts 237°
2026-04-22 02:50 -37.40899 144.99981 1190 ft 0 kts 237°
2026-04-22 02:50 -37.40898 144.99980 1190 ft 1 kts 237°
2026-04-22 02:50 -37.40899 144.99980 1191 ft 0 kts 237°
2026-04-22 02:51 -37.40898 144.99979 1192 ft 0 kts 237°
2026-04-22 02:51 -37.40899 144.99980 1192 ft 1 kts 237°
2026-04-22 02:51 -37.40898 144.99979 1193 ft 0 kts 237°
2026-04-22 02:52 -37.40899 144.99980 1191 ft 0 kts 237°
2026-04-22 02:52 -37.40898 144.99979 1190 ft 1 kts 237°
2026-04-22 02:52 -37.40899 144.99979 1193 ft 0 kts 237°
2026-04-22 02:53 -37.40898 144.99978 1193 ft 0 kts 237°
2026-04-22 02:53 -37.40899 144.99979 1190 ft 1 kts 237°
2026-04-22 02:53 -37.40898 144.99978 1192 ft 0 kts 237°
2026-04-22 02:54 -37.40899 144.99979 1190 ft 0 kts 237°
2026-04-22 02:54 -37.40898 144.99978 1193 ft 0 kts 237°
2026-04-22 02:54 -37.40899 144.99978 1192 ft 1 kts 237°
2026-04-22 02:54 -37.40898 144.99978 1192 ft 0 kts 237°
2026-04-22 02:55 -37.40899 144.99978 1194 ft 0 kts 237°
2026-04-22 02:55 -37.40898 144.99977 1190 ft 0 kts 237°
2026-04-22 02:55 -37.40899 144.99978 1194 ft 1 kts 237°
2026-04-22 02:56 -37.40898 144.99977 1190 ft 0 kts 237°
2026-04-22 02:56 -37.40899 144.99977 1193 ft 0 kts 237°
2026-04-22 02:57 -37.40898 144.99976 1191 ft 0 kts 237°
2026-04-22 02:57 -37.40899 144.99977 1192 ft 1 kts 237°
2026-04-22 02:58 -37.40898 144.99976 1191 ft 0 kts 237°
2026-04-22 02:58 -37.40899 144.99976 1194 ft 0 kts 237°
2026-04-22 02:59 -37.40899 144.99975 1191 ft 0 kts 237°
2026-04-22 02:59 -37.40899 144.99976 1192 ft 1 kts 237°
2026-04-22 03:00 -37.40899 144.99975 1190 ft 0 kts 237°
2026-04-22 03:01 -37.40900 144.99975 1192 ft 0 kts 237°
2026-04-22 03:01 -37.40899 144.99974 1189 ft 0 kts 237°
2026-04-22 03:01 -37.40900 144.99975 1191 ft 0 kts 237°
2026-04-22 03:02 -37.40899 144.99974 1189 ft 0 kts 237°
2026-04-22 03:02 -37.40900 144.99974 1188 ft 1 kts 237°
2026-04-22 03:02 -37.40899 144.99974 1192 ft 1 kts 237°
2026-04-22 03:02 -37.40899 144.99973 1188 ft 0 kts 237°
2026-04-22 03:03 -37.40903 144.99946 1213 ft 25 kts 237°
2026-04-22 03:03 -37.41300 144.99524 1617 ft 116 kts 217°
2026-04-22 03:03 -37.42136 144.98966 2074 ft 145 kts 212°
2026-04-22 03:03 -37.43041 144.98388 2049 ft 147 kts 212°
2026-04-22 03:04 -37.43941 144.97960 2045 ft 135 kts 196°
2026-04-22 03:04 -37.44965 144.97707 2052 ft 157 kts 195°
2026-04-22 03:04 -37.45980 144.97438 2055 ft 148 kts 195°
2026-04-22 03:04 -37.46969 144.97172 2049 ft 145 kts 195°
2026-04-22 03:05 -37.47960 144.96874 2049 ft 145 kts 195°
2026-04-22 03:05 -37.48969 144.96588 2048 ft 151 kts 195°
2026-04-22 03:05 -37.49985 144.96259 2054 ft 147 kts 197°
2026-04-22 03:05 -37.50993 144.95953 2049 ft 151 kts 197°
2026-04-22 03:06 -37.51983 144.95662 2049 ft 148 kts 197°
2026-04-22 03:06 -37.52983 144.95378 2045 ft 150 kts 197°
2026-04-22 03:06 -37.53983 144.95092 2053 ft 147 kts 197°
2026-04-22 03:06 -37.55004 144.94791 2049 ft 152 kts 197°
2026-04-22 03:07 -37.56020 144.94490 2048 ft 150 kts 197°
2026-04-22 03:07 -37.57031 144.94204 2052 ft 142 kts 196°
2026-04-22 03:07 -37.57958 144.94056 2041 ft 131 kts 191°
2026-04-22 03:07 -37.58863 144.94115 2040 ft 138 kts 183°
2026-04-22 03:08 -37.59928 144.94159 2046 ft 153 kts 184°
2026-04-22 03:08 -37.60994 144.94210 2062 ft 151 kts 183°
2026-04-22 03:08 -37.62055 144.94241 2052 ft 154 kts 184°
2026-04-22 03:08 -37.63078 144.94260 2047 ft 154 kts 184°
2026-04-22 03:09 -37.64147 144.94278 2019 ft 157 kts 184°
2026-04-22 03:09 -37.65262 144.94335 2037 ft 163 kts 181°
2026-04-22 03:09 -37.66394 144.94410 2047 ft 158 kts 181°
2026-04-22 03:09 -37.67416 144.94461 2047 ft 149 kts 181°
2026-04-22 03:10 -37.68469 144.94496 2046 ft 149 kts 181°
2026-04-22 03:10 -37.69511 144.94549 2050 ft 149 kts 181°
2026-04-22 03:10 -37.70557 144.94594 2052 ft 147 kts 181°
2026-04-22 03:10 -37.71522 144.94663 2055 ft 133 kts 181°
2026-04-22 03:11 -37.72568 144.94749 1944 ft 168 kts 180°
2026-04-22 03:11 -37.73809 144.94860 1719 ft 186 kts 177°
2026-04-22 03:11 -37.75093 144.95152 1638 ft 190 kts 169°
2026-04-22 03:11 -37.76382 144.95605 1632 ft 195 kts 162°
2026-04-22 03:12 -37.77637 144.96278 1581 ft 199 kts 152°
2026-04-22 03:12 -37.79776 144.97932 1393 ft 153 kts 145°
2026-04-22 03:12 -37.80581 144.98667 1315 ft 136 kts 144°
2026-04-22 03:13 -37.81372 144.99214 1230 ft 128 kts 158°
2026-04-22 03:13 -37.82210 144.99497 1238 ft 127 kts 176°
2026-04-22 03:13 -37.83088 144.99499 1046 ft 124 kts 192°
2026-04-22 03:13 -37.84039 144.99325 1102 ft 155 kts 193°
2026-04-22 03:14 -37.85119 144.99228 638 ft 144 kts 188°
2026-04-22 03:14 -37.85992 144.99162 567 ft 119 kts 215°
2026-04-22 03:14 -37.86421 144.98691 724 ft 78 kts 308°
2026-04-22 03:14 -37.85901 144.98160 520 ft 123 kts
2026-04-22 03:15 -37.84950 144.97967 643 ft 150 kts
2026-04-22 03:15 -37.84140 144.97949 646 ft 49 kts 123°
2026-04-22 03:15 -37.84387 144.98283 414 ft 44 kts 201°
2026-04-22 03:15 -37.84525 144.98186 178 ft 11 kts 263°
2026-04-22 03:16 -37.84517 144.98126 91 ft 2 kts 270°
2026-04-22 03:16 -37.84516 144.98125 89 ft 0 kts 270°
2026-04-22 03:17 -37.84517 144.98125 89 ft 0 kts 276°
2026-04-22 03:17 -37.84516 144.98125 89 ft 0 kts 273°
2026-04-22 03:27 -37.84527 144.97864 338 ft 71 kts 265°
2026-04-22 03:27 -37.84713 144.97004 676 ft 121 kts 263°
2026-04-22 03:27 -37.84887 144.95945 910 ft 122 kts 273°
2026-04-22 03:27 -37.84952 144.94833 1016 ft 127 kts 279°
2026-04-22 03:28 -37.85047 144.93718 879 ft 133 kts 269°
2026-04-22 03:28 -37.85299 144.92522 848 ft 147 kts 260°
2026-04-22 03:28 -37.85680 144.91335 924 ft 150 kts 257°
2026-04-22 03:28 -37.86070 144.90104 934 ft 149 kts 256°
2026-04-22 03:29 -37.86446 144.88878 920 ft 151 kts 255°
2026-04-22 03:29 -37.86755 144.87627 916 ft 148 kts 261°
2026-04-22 03:29 -37.86972 144.86380 918 ft 144 kts 267°
2026-04-22 03:29 -37.87128 144.85136 919 ft 143 kts 268°
2026-04-22 03:30 -37.87258 144.83900 928 ft 141 kts 268°
2026-04-22 03:30 -37.87479 144.82637 908 ft 153 kts 267°
2026-04-22 03:30 -37.87528 144.81372 927 ft 137 kts 284°
2026-04-22 03:30 -37.87400 144.80193 921 ft 134 kts 290°
2026-04-22 03:31 -37.87234 144.79061 885 ft 141 kts 291°
2026-04-22 03:31 -37.87035 144.77829 918 ft 140 kts 290°
2026-04-22 03:31 -37.86840 144.76620 926 ft 138 kts 290°
2026-04-22 03:31 -37.86649 144.75449 929 ft 131 kts 290°
2026-04-22 03:32 -37.86396 144.74397 973 ft 136 kts 297°
2026-04-22 03:32 -37.86020 144.73462 1067 ft 103 kts 312°
2026-04-22 03:32 -37.85665 144.72876 1080 ft 69 kts 322°
2026-04-22 03:32 -37.85230 144.72404 1617 ft 111 kts 328°
2026-04-22 03:33 -37.84508 144.71703 1271 ft 136 kts 326°
2026-04-22 03:33 -37.83782 144.70994 1455 ft 128 kts 327°
2026-04-22 03:33 -37.83084 144.70319 2053 ft 122 kts 326°
2026-04-22 03:33 -37.82435 144.69720 2451 ft 111 kts 327°
2026-04-22 03:34 -37.81776 144.69151 2405 ft 118 kts 328°
2026-04-22 03:34 -37.81099 144.68575 2420 ft 124 kts 327°
2026-04-22 03:34 -37.80381 144.67982 2437 ft 126 kts 327°
2026-04-22 03:34 -37.79642 144.67377 2448 ft 128 kts 328°
2026-04-22 03:35 -37.78893 144.66766 2460 ft 127 kts 328°
2026-04-22 03:35 -37.78151 144.66161 2471 ft 126 kts 327°
2026-04-22 03:35 -37.77411 144.65557 2471 ft 127 kts 327°
2026-04-22 03:35 -37.76676 144.64958 2468 ft 128 kts 328°
2026-04-22 03:36 -37.75924 144.64347 2462 ft 128 kts 329°
2026-04-22 03:36 -37.75182 144.63742 2468 ft 126 kts 328°
2026-04-22 03:36 -37.74451 144.63144 2469 ft 125 kts 327°
2026-04-22 03:36 -37.73714 144.62542 2471 ft 128 kts 328°
2026-04-22 03:37 -37.72961 144.61929 2468 ft 129 kts 329°
2026-04-22 03:37 -37.72214 144.61320 2472 ft 127 kts 328°
2026-04-22 03:37 -37.71474 144.60714 2472 ft 127 kts 328°
2026-04-22 03:37 -37.70725 144.60103 2470 ft 129 kts 327°
2026-04-22 03:38 -37.69875 144.59728 2461 ft 133 kts 346°
2026-04-22 03:38 -37.68968 144.59558 2464 ft 131 kts 348°
2026-04-22 03:38 -37.68074 144.59367 2469 ft 129 kts 348°
2026-04-22 03:38 -37.67217 144.59060 2473 ft 131 kts 342°
2026-04-22 03:39 -37.66344 144.58723 2467 ft 131 kts 342°
2026-04-22 03:39 -37.65487 144.58391 2467 ft 128 kts 341°
2026-04-22 03:39 -37.64671 144.57971 2328 ft 124 kts 336°
2026-04-22 03:39 -37.63960 144.57598 2098 ft 101 kts 339°
2026-04-22 03:40 -37.63335 144.57306 1889 ft 92 kts 340°
2026-04-22 03:40 -37.62736 144.57088 1696 ft 88 kts 351°
2026-04-22 03:40 -37.62150 144.56937 1488 ft 84 kts 348°
2026-04-22 03:40 -37.61567 144.56896 1300 ft 92 kts 15°
2026-04-22 03:41 -37.61132 144.57399 1324 ft 75 kts 101°
2026-04-22 03:41 -37.61479 144.57742 1278 ft 81 kts 233°
2026-04-22 03:41 -37.61843 144.57305 1119 ft 64 kts 257°
2026-04-22 03:41 -37.61997 144.56939 803 ft 27 kts 252°
2026-04-22 03:42 -37.62015 144.56829 680 ft 2 kts 253°
2026-04-22 03:42 -37.62002 144.56815 683 ft 3 kts 324°
2026-04-22 03:42 -37.61957 144.56783 691 ft 7 kts 331°
2026-04-22 03:42 -37.61931 144.56776 685 ft 1 kts 64°
2026-04-22 03:43 -37.61931 144.56779 679 ft 0 kts 61°
2026-04-22 04:06 -37.61932 144.56779 679 ft 0 kts 60°
2026-04-22 04:10 -37.61934 144.56797 687 ft 4 kts 131°
2026-04-22 04:10 -37.61958 144.56816 685 ft 5 kts 148°
2026-04-22 04:11 -37.62034 144.56729 698 ft 36 kts 236°
2026-04-22 04:11 -37.62301 144.56330 926 ft 86 kts 242°
2026-04-22 04:11 -37.62792 144.55596 1231 ft 129 kts 239°
2026-04-22 04:11 -37.63406 144.54699 1631 ft 137 kts 236°
2026-04-22 04:12 -37.64063 144.53799 1679 ft 145 kts 237°
2026-04-22 04:12 -37.64801 144.52933 1827 ft 144 kts 228°
2026-04-22 04:12 -37.65592 144.52200 2090 ft 137 kts 221°
2026-04-22 04:12 -37.66373 144.51550 1967 ft 132 kts 219°
2026-04-22 04:13 -37.67144 144.50901 1950 ft 132 kts 224°
2026-04-22 04:13 -37.67869 144.50291 2209 ft 121 kts 223°
2026-04-22 04:13 -37.68575 144.49700 2286 ft 122 kts 224°
2026-04-22 04:13 -37.69331 144.49215 2289 ft 118 kts 216°
2026-04-22 04:14 -37.70052 144.48795 2379 ft 111 kts 218°
2026-04-22 04:14 -37.70729 144.48295 2616 ft 116 kts 222°
2026-04-22 04:14 -37.71433 144.47718 2578 ft 123 kts 224°
2026-04-22 04:14 -37.72170 144.47107 2487 ft 128 kts 223°
2026-04-22 04:15 -37.72735 144.46376 2645 ft 112 kts 258°
2026-04-22 04:15 -37.72957 144.45423 2450 ft 119 kts 272°
2026-04-22 04:15 -37.73026 144.44369 2080 ft 122 kts 278°
2026-04-22 04:15 -37.72982 144.43325 1863 ft 116 kts 283°
2026-04-22 04:16 -37.72955 144.42341 1673 ft 111 kts 285°
2026-04-22 04:16 -37.72335 144.41750 1436 ft 114 kts 72°
2026-04-22 04:16 -37.72425 144.42809 1290 ft 117 kts 100°
2026-04-22 04:17 -37.72522 144.43762 1215 ft 104 kts 99°
2026-04-22 04:17 -37.72675 144.44631 1113 ft 96 kts 121°
2026-04-22 04:17 -37.73116 144.44816 913 ft 60 kts 191°
2026-04-22 04:17 -37.73506 144.44500 942 ft 54 kts 278°
2026-04-22 04:18 -37.73401 144.43863 698 ft 89 kts 290°
2026-04-22 04:18 -37.73274 144.43221 607 ft 69 kts 297°
2026-04-22 04:18 -37.73191 144.42811 525 ft 17 kts 294°
2026-04-22 04:18 -37.73138 144.42781 521 ft 5 kts
2026-04-22 04:19 -37.73134 144.42782 517 ft 0 kts
2026-04-22 04:19 -37.73111 144.42793 514 ft 9 kts 64°
2026-04-22 04:19 -37.73128 144.42878 512 ft 10 kts 104°
2026-04-22 04:19 -37.73145 144.42961 511 ft 10 kts 103°
2026-04-22 04:20 -37.73163 144.43048 511 ft 9 kts 104°
2026-04-22 04:20 -37.73181 144.43114 512 ft 6 kts 161°
2026-04-22 04:20 -37.73212 144.43109 513 ft 3 kts 190°
2026-04-22 04:20 -37.73234 144.43102 518 ft 5 kts 203°
2026-04-22 04:21 -37.73243 144.43059 526 ft 6 kts 279°
2026-04-22 04:21 -37.73234 144.43010 522 ft 0 kts 281°
2026-04-22 04:23 -37.73217 144.42936 527 ft 23 kts 285°
2026-04-22 04:23 -37.73151 144.42625 653 ft 56 kts 289°
2026-04-22 04:23 -37.73039 144.42050 911 ft 73 kts 294°
2026-04-22 04:23 -37.72878 144.41405 1344 ft 77 kts 306°
2026-04-22 04:24 -37.72416 144.41220 1541 ft 84 kts 20°
2026-04-22 04:24 -37.71879 144.41512 1622 ft 88 kts 64°
2026-04-22 04:24 -37.71821 144.42344 1613 ft 106 kts 98°
2026-04-22 04:24 -37.71997 144.43297 1546 ft 115 kts 102°
2026-04-22 04:25 -37.72173 144.44284 1454 ft 107 kts 101°
2026-04-22 04:25 -37.72296 144.44985 1371 ft 68 kts 119°
2026-04-22 04:25 -37.72778 144.45108 1264 ft 82 kts 192°
2026-04-22 04:25 -37.73241 144.44943 1069 ft 69 kts 221°
2026-04-22 04:26 -37.73437 144.44359 924 ft 76 kts 276°
2026-04-22 04:26 -37.73373 144.43751 741 ft 66 kts 289°
2026-04-22 04:26 -37.73273 144.43183 567 ft 67 kts 297°
2026-04-22 04:26 -37.73162 144.42669 529 ft 53 kts 294°
2026-04-22 04:27 -37.73072 144.42245 632 ft 51 kts 288°
2026-04-22 04:27 -37.72948 144.41650 952 ft 88 kts 294°
2026-04-22 04:27 -37.72718 144.41063 1239 ft 66 kts 331°
2026-04-22 04:27 -37.72176 144.41181 1360 ft 97 kts 13°
2026-04-22 04:28 -37.71645 144.41639 1662 ft 89 kts 90°
2026-04-22 04:28 -37.71650 144.42498 1652 ft 109 kts 107°
2026-04-22 04:28 -37.71767 144.43450 1517 ft 112 kts 107°
2026-04-22 04:28 -37.71910 144.44473 1310 ft 122 kts 103°
2026-04-22 04:29 -37.72126 144.45453 1467 ft 112 kts 146°
2026-04-22 04:29 -37.72757 144.45886 1520 ft 113 kts 198°
2026-04-22 04:29 -37.73484 144.45680 1361 ft 100 kts 248°
2026-04-22 04:29 -37.73656 144.44987 1189 ft 84 kts 307°
2026-04-22 04:30 -37.73498 144.44267 992 ft 79 kts 298°
2026-04-22 04:30 -37.73368 144.43664 774 ft 67 kts 296°
2026-04-22 04:30 -37.73250 144.43101 578 ft 70 kts 299°
2026-04-22 04:30 -37.73124 144.42489 637 ft 78 kts 297°
2026-04-22 04:31 -37.72986 144.41830 870 ft 76 kts 295°
2026-04-22 04:31 -37.72734 144.41298 1204 ft 69 kts 328°
2026-04-22 04:31 -37.72206 144.41373 1356 ft 89 kts 10°
2026-04-22 04:31 -37.71631 144.41677 1466 ft 91 kts 56°
2026-04-22 04:32 -37.71562 144.42384 1403 ft 95 kts 104°
2026-04-22 04:32 -37.71715 144.43308 1354 ft 118 kts 103°
2026-04-22 04:32 -37.71814 144.43955 1283 ft 105 kts 100°
2026-04-22 04:32 -37.72046 144.44755 1165 ft 92 kts 143°
2026-04-22 04:33 -37.72569 144.45026 1129 ft 88 kts 197°
2026-04-22 04:33 -37.73214 144.44919 997 ft 92 kts 225°
2026-04-22 04:33 -37.73470 144.44331 963 ft 87 kts 288°
2026-04-22 04:33 -37.73365 144.43650 718 ft 67 kts 294°
2026-04-22 04:34 -37.73242 144.43062 555 ft 34 kts 292°
2026-04-22 04:34 -37.73222 144.42961 514 ft 4 kts 290°
2026-04-22 04:34 -37.73220 144.42956 514 ft 0 kts 288°
2026-04-22 04:36 -37.73216 144.42936 519 ft 7 kts 285°
2026-04-22 04:36 -37.73200 144.42855 516 ft 15 kts 283°
2026-04-22 04:36 -37.73156 144.42771 517 ft 10 kts 14°
2026-04-22 04:36 -37.73114 144.42820 513 ft 10 kts 76°
2026-04-22 04:37 -37.73104 144.42829 512 ft 0 kts 11°
2026-04-22 04:38 -37.73103 144.42830 512 ft 0 kts 12°
2026-04-22 05:20 -37.73101 144.42831 507 ft 1 kts 13°
2026-04-22 05:20 -37.73100 144.42833 506 ft 0 kts 13°
2026-04-22 05:20 -37.73099 144.42836 513 ft 2 kts 81°
2026-04-22 05:20 -37.73114 144.42862 510 ft 11 kts 115°
2026-04-22 05:21 -37.73146 144.42980 512 ft 9 kts 104°
2026-04-22 05:21 -37.73168 144.43081 512 ft 9 kts 99°
2026-04-22 05:21 -37.73186 144.43117 511 ft 8 kts 186°
2026-04-22 05:21 -37.73243 144.43095 513 ft 9 kts 225°
2026-04-22 05:22 -37.73224 144.42960 533 ft 26 kts 274°
2026-04-22 05:22 -37.73168 144.42698 620 ft 37 kts 268°
2026-04-22 05:22 -37.73081 144.42265 718 ft 64 kts 293°
2026-04-22 05:22 -37.72955 144.41572 967 ft 95 kts 304°
2026-04-22 05:23 -37.72500 144.41062 1404 ft 99 kts 358°
2026-04-22 05:23 -37.71753 144.41347 1704 ft 124 kts 45°
2026-04-22 05:23 -37.71457 144.42377 1702 ft 127 kts 103°
2026-04-22 05:23 -37.71428 144.43450 1743 ft 111 kts 107°
2026-04-22 05:24 -37.71300 144.44385 1746 ft 109 kts 64°
2026-04-22 05:24 -37.70822 144.45101 1703 ft 107 kts 31°
2026-04-22 05:24 -37.70228 144.45512 1902 ft 89 kts 25°
2026-04-22 05:24 -37.69637 144.45864 1865 ft 93 kts 17°
2026-04-22 05:25 -37.68998 144.46144 2729 ft 109 kts 14°
2026-04-22 05:25 -37.68284 144.46397 2934 ft 94 kts 13°
2026-04-22 05:25 -37.67626 144.46639 2927 ft 104 kts 11°
2026-04-22 05:25 -37.66894 144.46907 2907 ft 115 kts 12°
2026-04-22 05:26 -37.66100 144.47203 2900 ft 121 kts 13°
2026-04-22 05:26 -37.65411 144.47367 2917 ft 83 kts
2026-04-22 05:26 -37.64895 144.47438 2902 ft 74 kts
2026-04-22 05:26 -37.64349 144.47555 2903 ft 84 kts 20°
2026-04-22 05:27 -37.63746 144.47705 2907 ft 92 kts 19°
2026-04-22 05:27 -37.63108 144.47874 2909 ft 95 kts 10°
2026-04-22 05:27 -37.62462 144.48057 2929 ft 92 kts
2026-04-22 05:27 -37.61952 144.48492 2957 ft 90 kts 66°
2026-04-22 05:28 -37.61526 144.49192 2918 ft 115 kts 42°
2026-04-22 05:28 -37.60767 144.49761 2901 ft 139 kts 24°
2026-04-22 05:28 -37.59842 144.50291 2906 ft 150 kts 20°
2026-04-22 05:28 -37.58859 144.50813 2909 ft 156 kts 21°
2026-04-22 05:29 -37.57833 144.51298 2911 ft 159 kts 18°
2026-04-22 05:29 -37.56790 144.51730 2915 ft 158 kts 16°
2026-04-22 05:29 -37.55727 144.52112 2915 ft 159 kts 12°
2026-04-22 05:29 -37.54648 144.52433 2919 ft 161 kts 30°
2026-04-22 05:30 -37.53569 144.52784 2917 ft 160 kts 37°
2026-04-22 05:30 -37.52533 144.53250 2928 ft 155 kts 19°
2026-04-22 05:30 -37.51697 144.53831 2960 ft 124 kts 35°
2026-04-22 05:30 -37.51143 144.54505 2954 ft 94 kts 44°
2026-04-22 05:31 -37.50720 144.55091 2930 ft 89 kts 43°
2026-04-22 05:31 -37.50332 144.55653 2924 ft 81 kts 44°
2026-04-22 05:31 -37.49923 144.56265 2894 ft 113 kts 45°
2026-04-22 05:31 -37.49278 144.57034 2906 ft 138 kts 36°
2026-04-22 05:32 -37.48458 144.57771 2917 ft 149 kts 30°
2026-04-22 05:32 -37.47587 144.58507 2933 ft 150 kts 37°
2026-04-22 05:32 -37.47184 144.59646 2947 ft 144 kts 88°
2026-04-22 05:32 -37.47638 144.60700 2936 ft 140 kts 147°
2026-04-22 05:33 -37.48549 144.60912 2925 ft 134 kts 197°
2026-04-22 05:33 -37.49297 144.60309 2912 ft 128 kts 245°
2026-04-22 05:33 -37.49522 144.59251 2916 ft 124 kts 280°
2026-04-22 05:33 -37.49117 144.58391 2928 ft 117 kts 330°
2026-04-22 05:34 -37.48304 144.58432 2928 ft 129 kts 24°
2026-04-22 05:34 -37.47844 144.59436 2916 ft 148 kts 83°
2026-04-22 05:34 -37.48332 144.60561 2913 ft 157 kts 151°
2026-04-22 05:34 -37.49327 144.60533 2923 ft 141 kts 224°
2026-04-22 05:35 -37.49628 144.59505 2939 ft 129 kts 281°
2026-04-22 05:35 -37.49086 144.58735 2936 ft 126 kts 345°
2026-04-22 05:35 -37.48169 144.58818 2902 ft 143 kts
2026-04-22 05:35 -37.47161 144.58806 2915 ft 154 kts 342°
2026-04-22 05:36 -37.46238 144.58055 2919 ft 164 kts 323°
2026-04-22 05:36 -37.45389 144.57067 2938 ft 167 kts 318°
2026-04-22 05:36 -37.44603 144.56037 2951 ft 161 kts 315°
2026-04-22 05:36 -37.43838 144.54978 2945 ft 165 kts 315°
2026-04-22 05:37 -37.42887 144.54240 2931 ft 162 kts 346°
2026-04-22 05:37 -37.41773 144.54125 2909 ft 164 kts 356°
2026-04-22 05:37 -37.40618 144.54010 2914 ft 171 kts 349°
2026-04-22 05:37 -37.39485 144.53587 2921 ft 171 kts 338°
2026-04-22 05:38 -37.38378 144.53143 2923 ft 168 kts 338°
2026-04-22 05:38 -37.37277 144.52568 2939 ft 172 kts 338°
2026-04-22 05:38 -37.36209 144.52004 2984 ft 153 kts 346°
2026-04-22 05:38 -37.35323 144.52285 2947 ft 130 kts 40°
2026-04-22 05:39 -37.35167 144.53334 2931 ft 129 kts 106°
2026-04-22 05:39 -37.35441 144.54434 2916 ft 135 kts 97°
2026-04-22 05:39 -37.35155 144.55554 2888 ft 146 kts 51°
2026-04-22 05:39 -37.34385 144.56445 2923 ft 151 kts 38°
2026-04-22 05:40 -37.33605 144.57284 3274 ft 149 kts 39°
2026-04-22 05:40 -37.32931 144.58325 3894 ft 160 kts 56°
2026-04-22 05:40 -37.32352 144.59541 3890 ft 163 kts 57°
2026-04-22 05:40 -37.31728 144.60796 3862 ft 168 kts 55°
2026-04-22 05:41 -37.31065 144.62062 3820 ft 180 kts 54°
2026-04-22 05:41 -37.30322 144.63395 3821 ft 192 kts 52°
2026-04-22 05:41 -37.29498 144.64756 3841 ft 197 kts 50°
2026-04-22 05:41 -37.28654 144.66047 3863 ft 182 kts 47°
2026-04-22 05:42 -37.27859 144.67191 3863 ft 167 kts 47°
2026-04-22 05:42 -37.27109 144.68220 3875 ft 156 kts 45°
2026-04-22 05:42 -37.26366 144.69176 3879 ft 152 kts 43°
2026-04-22 05:42 -37.25597 144.70104 3871 ft 153 kts 41°
2026-04-22 05:43 -37.24806 144.71016 3850 ft 157 kts 40°
2026-04-22 05:43 -37.23985 144.71908 3867 ft 146 kts 39°
2026-04-22 05:43 -37.23317 144.72671 3865 ft 121 kts 39°
2026-04-22 05:43 -37.22671 144.73417 3842 ft 137 kts 39°
2026-04-22 05:44 -37.21885 144.74309 3833 ft 165 kts 39°
2026-04-22 05:44 -37.21008 144.75289 3846 ft 172 kts 39°
2026-04-22 05:44 -37.20103 144.76312 3849 ft 183 kts 40°
2026-04-22 05:44 -37.19231 144.77497 3851 ft 186 kts 46°
2026-04-22 05:45 -37.18377 144.78696 3891 ft 179 kts 46°
2026-04-22 05:45 -37.17576 144.79828 3879 ft 170 kts 46°
2026-04-22 05:45 -37.16801 144.80928 3872 ft 167 kts 46°
2026-04-22 05:45 -37.16033 144.82018 3867 ft 167 kts 46°
2026-04-22 05:46 -37.15264 144.83110 3859 ft 168 kts 46°
2026-04-22 05:46 -37.14502 144.84217 3854 ft 169 kts 46°
2026-04-22 05:46 -37.13728 144.85335 3860 ft 170 kts 46°
2026-04-22 05:46 -37.12949 144.86457 3865 ft 170 kts 46°
2026-04-22 05:47 -37.12167 144.87579 3867 ft 171 kts 46°
2026-04-22 05:47 -37.11381 144.88701 3865 ft 171 kts 47°
2026-04-22 05:47 -37.10596 144.89831 3868 ft 172 kts 47°
2026-04-22 05:47 -37.09821 144.90965 3865 ft 171 kts 47°
2026-04-22 05:48 -37.09060 144.92097 3864 ft 172 kts 47°
2026-04-22 05:48 -37.08284 144.93242 3867 ft 172 kts 47°
2026-04-22 05:48 -37.07509 144.94386 3868 ft 172 kts 47°
2026-04-22 05:48 -37.06729 144.95534 3869 ft 173 kts 47°
2026-04-22 05:49 -37.05951 144.96674 3873 ft 170 kts 47°
2026-04-22 05:49 -37.05179 144.97793 3872 ft 169 kts 47°
2026-04-22 05:49 -37.04413 144.98908 3871 ft 168 kts 47°
2026-04-22 05:49 -37.03655 145.00014 3870 ft 167 kts 47°
2026-04-22 05:50 -37.02923 145.01074 3746 ft 144 kts 45°
2026-04-22 05:50 -37.02327 145.01939 3841 ft 126 kts 46°
2026-04-22 05:50 -37.01787 145.02640 3421 ft 76 kts 38°
2026-04-22 05:50 -37.01602 145.02836 3264 ft 10 kts 41°
2026-04-22 05:51 -37.01460 145.03068 2616 ft 76 kts 46°
2026-04-22 05:51 -37.01042 145.03684 1892 ft 92 kts 47°
2026-04-22 05:51 -37.00670 145.04178 1233 ft 65 kts 48°
2026-04-22 05:51 -37.00472 145.04578 911 ft 36 kts 41°
2026-04-22 05:52 -37.00375 145.04757 729 ft 19 kts 38°
2026-04-22 05:52 -37.00335 145.04836 584 ft 8 kts 36°
2026-04-22 05:52 -37.00320 145.04857 547 ft 2 kts 36°
2026-04-22 05:52 -37.00317 145.04859 538 ft 0 kts 35°